User: anonymous   Login
Location: Mentone
(34.5413°N, 85.5351°W)
Time: 03:06:25
(UTC-06:00)
Language:

ADEOS Rocket - Orbit

View from above orbital plane
View from above orbital plane
View from above satellite
View from above satellite

Ground track
Ground track

The orbit data is extracted from the following two-line orbital elements,

1 24279U 96046C   16037.11102161  .00000012  00000-0  57142-4 0  9995
2 24279  98.6936  38.1745 0300994 116.6973 293.8146 13.47041819957320
Epoch (UTC): 06 February 2016 02:39:52
Eccentricity: 0.0300994
inclination: 98.6936°
perigee height: 858 km
apogee height: 1308 km
right ascension of ascending node: 38.1745°
argument of perigee: 116.6973°
revolutions per day: 13.47041819
mean anomaly at epoch: 293.8146°
orbit number at epoch: 95732

The dashed part of the orbit path shows where the satellite is in the earth's shadow,  

DLR